Location: Zagreb
(45.8000°N, 16.0000°E)
Time: 11:17:34
(UTC+01:00)

Vanguard 1 Rocket - Pass Details

Date: 07 October 2020
Orbit: 656 x 4221 km, 34.3° (Epoch: 28 October)

Event Time Altitude Azimuth Distance (km) Brightness Sun altitude
Rises 14:53:06 0° 196° (SSW) 3,614 11.4 30.9°
Reaches altitude 10° 14:56:13 10° 177° (S) 3,024 10.9 30.6°
Maximum altitude 15:01:05 18° 136° (SE) 3,034 10.3 30.0°
Drops below altitude 10° 15:07:58 10° 98° (E) 4,520 10.7 29.2°
Sets 15:14:19 0° 84° (E) 6,294 11.3 28.5°
